Montpelier, VT

8:07 AM EST on November 22, 2017 (GMT -0500)
Knapp State

Weather History for KMPV - February, 2014

Change the Weather History Date:

Thursday, February 6, 2014

  Actual Average Record
Temperature  
Mean Temperature 5 °F 18 °F  
Max Temperature 17 °F 28 °F 47 °F (2005)
Min Temperature -8 °F 8 °F -20 °F (1993)
Degree Days  
Heating Degree Days 60 47  
Month to date heating degree days 255 284  
Since 1 July heating degree days 5062 4929  
Cooling Degree Days 0 0  
Month to date cooling degree days 0  
Year to date cooling degree days 0  
Moisture  
Dew Point 1 °F    
Average Humidity 78    
Maximum Humidity 100    
Minimum Humidity 56    
Precipitation  
Precipitation T in 0.08 in 1.13 in (1956)
Month to date precipitation 0.52 0.47  
Year to date precipitation 2.35 2.92  
Sea Level Pressure  
Sea Level Pressure 30.21 in    
Wind  
Wind Speed 2 mph (WNW)    
Max Wind Speed 13 mph    
Max Gust Speed 17 mph    
Visibility 9 miles    
Events Snow    
T = Trace of Precipitation, MM = Missing Value Source: NWS Daily Summary

Daily Weather History Graph

Daily Weather History Graph

Search for Another Location

Airport or City:

Trip Planner

Search our weather history database for the weather conditions in past years. The results will help you decide how hot, cold, wet, or windy it might be!

Date:

Astronomy

Feb. 06, 2014 Rise Set
Actual Time 7:02 AM EST 5:07 PM EST
Civil Twilight 6:31 AM EST 5:37 PM EST
Nautical Twilight 5:57 AM EST 6:11 PM EST
Astronomical Twilight 5:23 AM EST 6:45 PM EST
Moon 10:36 AM EST (2/6) 12:14 AM EST (2/6)
Length of Visible Light 11h 05m
Length of Day
10h 04m
Waxing Crescent, 49% of the Moon is Illuminated
Feb 6
Waxing Crescent
Feb 6
First Quarter
Feb 14
Full
Feb 22
Last Quarter
Mar 1
New

Hourly Weather History & Observations

Time (EST) Temp. Windchill Dew Point Humidity Pressure Visibility Wind Dir Wind Speed Gust Speed Precip Events Conditions
12:51 AM 7.0 °F -6.6 °F 3.0 °F 84% 30.10 in 5.0 mi NW 9.2 mph - 0.00 in Snow Light Snow
12:54 AM 7.0 °F -6.6 °F 3.0 °F 84% 30.03 in 5.0 mi NW 9.2 mph - 0.00 in   Overcast
1:18 AM 6.1 °F -5.6 °F 3.0 °F 87% 30.04 in 6.0 mi WNW 6.9 mph - 0.00 in   Overcast
1:27 AM 6.1 °F -6.8 °F 3.0 °F 87% 30.05 in 7.0 mi WNW 8.1 mph - 0.00 in   Overcast
1:51 AM 6.1 °F -5.6 °F 1.9 °F 83% 30.14 in 5.0 mi NW 6.9 mph - 0.00 in   Overcast
2:51 AM 3.9 °F -10.4 °F -0.0 °F 84% 30.17 in 10.0 mi WNW 9.2 mph - N/A   Overcast
3:15 AM 3.0 °F -9.3 °F -0.9 °F 84% 30.09 in 10.0 mi WNW 6.9 mph - N/A   Scattered Clouds
3:51 AM 1.0 °F -10.3 °F -2.0 °F 87% 30.19 in 10.0 mi NNW 5.8 mph - N/A   Clear
4:51 AM -4.0 °F - -7.1 °F 87% 30.24 in 10.0 mi Calm Calm - N/A   Clear
5:51 AM -8.0 °F - -9.0 °F 95% 30.26 in 10.0 mi Calm Calm - N/A   Partly Cloudy
6:51 AM -6.0 °F - -9.0 °F 87% 30.29 in 10.0 mi Calm Calm - N/A   Clear
7:51 AM -2.9 °F - -6.0 °F 87% 30.31 in 10.0 mi Calm Calm - N/A   Clear
8:51 AM -0.0 °F - -0.0 °F 100% 30.32 in 10.0 mi Calm Calm - N/A   Partly Cloudy
9:51 AM 5.0 °F - -2.0 °F 73% 30.32 in 10.0 mi Calm Calm - N/A   Partly Cloudy
10:51 AM 7.0 °F 0.1 °F -0.0 °F 73% 30.33 in 10.0 mi ENE 3.5 mph - N/A   Clear
11:51 AM 8.1 °F - 1.9 °F 76% 30.30 in 10.0 mi Calm Calm - N/A   Clear
12:51 PM 12.0 °F - 3.0 °F 67% 30.28 in 10.0 mi Calm Calm - N/A   Clear
1:51 PM 14.0 °F - 3.0 °F 62% 30.25 in 10.0 mi Calm Calm - N/A   Clear
2:51 PM 17.1 °F 11.7 °F 5.0 °F 59% 30.24 in 10.0 mi ESE 3.5 mph - N/A   Clear
3:51 PM 15.1 °F 6.4 °F 5.0 °F 64% 30.25 in 10.0 mi SE 5.8 mph - N/A   Clear
4:51 PM 10.9 °F - 5.0 °F 77% 30.25 in 10.0 mi Calm Calm - N/A   Clear
5:51 PM 7.0 °F 0.1 °F 3.9 °F 87% 30.27 in 10.0 mi SW 3.5 mph - N/A   Clear
6:51 PM 6.1 °F -2.8 °F 3.9 °F 91% 30.26 in 10.0 mi South 4.6 mph - N/A   Clear
7:51 PM 8.1 °F - 3.9 °F 83% 30.24 in 10.0 mi Calm Calm - N/A   Mostly Cloudy
8:51 PM 8.1 °F - 3.9 °F 83% 30.23 in 10.0 mi Calm Calm - N/A   Overcast
9:51 PM 7.0 °F - 3.9 °F 87% 30.23 in 10.0 mi Calm Calm - N/A   Overcast
10:51 PM 8.1 °F - 5.0 °F 87% 30.21 in 3.0 mi Calm Calm - 0.00 in Snow Light Snow
11:18 PM 6.1 °F - 3.9 °F 91% 30.12 in 4.0 mi Calm Calm - 0.00 in   Overcast
11:34 PM 6.1 °F - 3.9 °F 91% 30.11 in 6.0 mi Calm Calm - 0.00 in   Overcast
11:51 PM 5.0 °F - 1.9 °F 87% 30.20 in 7.0 mi Calm Calm - 0.00 in   Mostly Cloudy